Regional Weather Roundup
Issued by NWS

Home | Current Version | Previous Version | Graphics & Text | Print | Product List | Glossary On
Versions: 1 2 3 4 5 6 7 8 9 10 11 12 13 14 15 16 17 18 19 20 21 22 23 24 25 26 27 28 29 30 31 32 33 34 35 36 37 38 39 40 41 42 43 44 45 46 47 48 49 50
000
ASUS43 KLSX 160707
RWRMO

WEATHER SUMMARY FOR MISSOURI
NATIONAL WEATHER SERVICE SPRINGFIELD MO
200 AM CDT WED AUG 16 2017

NOTE: "FAIR" INDICATES FEW OR NO CLOUDS BELOW 12,000 FEET WITH NO
       SIGNIFICANT WEATHER AND/OR OBSTRUCTIONS TO VISIBILITY.
       CURRENT SKY AND/OR WEATHER CONDITIONS ARE NOT AVAILABLE FOR
       CHILLICOTHE AND FARMINGTON.

MOZ001>031-035>038-043-044-053-054-160800-
...NORTHERN AND WESTERN MISSOURI...

CITY           SKY/WX    TMP DP  RH WIND       PRES   REMARKS
KANSAS CTY INT CLOUDY    76  70  82 SE8       29.85F
KANSAS C DTWN  CLOUDY    79  72  79 SE7       29.83F
LEE`S SUMMIT   CLOUDY    76  72  87 SE6       29.86F
ST JOSEPH      PTCLDY    76  72  87 SE7       29.85F
CHILLICOTHE      N/A     69  69 100 CALM      29.88F
KIRKSVILLE     CLEAR     68  67  96 SE5       29.90F

$$
MOZ066>068-077>081-088>096-101>105-160800-
...SOUTHWEST MISSOURI...

CITY           SKY/WX    TMP DP  RH WIND       PRES   REMARKS
SPRINGFIELD    CLOUDY    75  75 100 E9        29.92R
JOPLIN         CLOUDY    75  74  96 S9        29.88F
BRANSON        LGT RAIN  72  72 100 SW5       29.94S

$$
MOZ032>034-039>042-045>050-055>058-069>072-160800-
...CENTRAL MISSOURI...

CITY           SKY/WX    TMP DP  RH WIND       PRES   REMARKS
COLUMBIA       CLOUDY    74  71  91 SE5       29.90S
JEFFERSON CITY MOCLDY    76  74  93 E5        29.88S
ROLLA          CLOUDY    74  72  93 SE6       29.92F
SEDALIA        CLOUDY    74  73  97 E3        29.88F
WHITEMAN AFB   MOCLDY    75  75 100 S5        29.86S
WARRENSBURG    CLOUDY    73  68  83 SE3       29.86F
OSAGE BEACH    CLOUDY    75  72  90 SE5       29.90R

$$
MOZ051-052-059>065-160800-
...EAST CENTRAL MISSOURI...

CITY           SKY/WX    TMP DP  RH WIND       PRES   REMARKS
ST LOUIS INTL  MOCLDY    78  72  81 S6        29.92F
SPIRIT OF STL  PTCLDY    77  72  84 CALM      29.90F
ST CHARLES     MOCLDY    71  70  96 E6        29.91F

$$
MOZ072>076-082>087-097>100-106>115-160800-
...SOUTH CENTRAL AND SOUTHEAST MISSOURI...

CITY           SKY/WX    TMP DP  RH WIND       PRES   REMARKS
CAPE GIRARDEAU PTCLDY    70  69  97 CALM      29.91F
FARMINGTON     MOCLDY    73  71  93 E3        29.94F
POPLAR BLUFF   CLOUDY    72  72 100 CALM      29.91S
WEST PLAINS    CLOUDY    75  73  93 S5        29.94S

$$



USA.gov is the U.S. government's official web portal to all federal, state and local government web resources and services.